GW1374 Weather Reports


Display with metric or nautical units.
time (UTC)temp
F
wind
direction
speed
MPH
gust
MPH
rain 1hr
in
rain 24hr
in
rain mn
in
humidity
%
barometer
mb
20260905190051 69 0 0.0 4.0 0.00 0.00 0.00 72 1012.8
20260905184559 68 309 0.0 3.0 0.00 0.00 0.00 76 1012.9
20260905183057 69 0 0.0 6.0 0.00 0.00 0.00 76 1012.9
20260905181551 69 68 1.0 3.0 0.00 0.00 0.00 74 1012.8
20260905174555 68 0 1.0 5.0 0.00 0.00 0.00 76 1012.9
20260905173100 69 72 0.0 3.0 0.00 0.00 0.00 73 1012.9
20260905171559 68 26 0.0 3.0 0.00 0.00 0.00 76 1013.2
20260905170052 68 34 0.0 4.0 0.00 0.00 0.00 78 1013.2
20260905164601 68 0 1.0 3.0 0.00 0.00 0.00 76 1013.1
20260905163058 68 0 0.0 3.0 0.00 0.00 0.00 75 1013.2
20260905161555 68 298 1.0 5.0 0.00 0.00 0.00 76 1013.3
20260905160052 67 292 1.0 3.0 0.00 0.00 0.00 78 1013.2
20260905154603 68 34 1.0 3.0 0.00 0.00 0.00 77 1013.3
20260905153048 67 0 1.0 4.0 0.00 0.00 0.00 79 1013.4
20260905151601 67 15 1.0 4.0 0.00 0.00 0.00 79 1013.4
20260905150051 66 57 1.0 3.0 0.00 0.00 0.00 81 1013.5
20260905144558 65 61 1.0 4.0 0.00 0.00 0.00 81 1013.5
20260905143059 65 334 1.0 7.0 0.00 0.00 0.00 83 1013.4
20260905141554 65 291 1.0 5.0 0.00 0.00 0.00 84 1013.6
20260905140052 64 108 0.0 5.0 0.00 0.00 0.00 87 1013.4
20260905134557 63 93 1.0 5.0 0.00 0.00 0.00 88 1013.4
20260905133057 62 323 1.0 4.0 0.00 0.00 0.00 89 1013.3
20260905131606 62 0 1.0 3.0 0.00 0.00 0.00 92 1013.1
20260905130058 61 137 0.0 3.0 0.00 0.00 0.00 93 1013.3
20260905124554 60 15 1.0 5.0 0.00 0.00 0.00 95 1013.6
20260905123052 59 83 0.0 3.0 0.00 0.00 0.00 96 1013.8
20260905121549 59 0 0.0 2.0 0.00 0.00 0.00 96 1013.7
20260905120054 58 178 0.0 2.0 0.00 0.00 0.00 96 1013.5
20260905114553 58 0 0.0 1.0 0.00 0.00 0.00 96 1013.0
20260905113052 58 0 0.0 2.0 0.00 0.00 0.00 96 1013.0
20260905111557 58 0 0.0 2.0 0.00 0.00 0.00 96 1013.0
20260905110107 58 0 0.0 2.0 0.00 0.00 0.00 95 1012.9
20260905104554 58 0 0.0 2.0 0.00 0.00 0.00 95 1012.6
20260905103053 58 9 0.0 1.0 0.00 0.00 0.00 95 1012.5
20260905101609 59 0 0.0 1.0 0.00 0.00 0.00 95 1012.2
20260905100052 59 0 0.0 2.0 0.00 0.00 0.00 95 1012.1
20260905094549 59 0 0.0 2.0 0.00 0.00 0.00 94 1011.9
20260905093120 59 0 0.0 3.0 0.00 0.00 0.00 94 1012.1
20260905091603 59 0 0.0 3.0 0.00 0.00 0.00 94 1011.9
20260905090052 60 0 0.0 3.0 0.00 0.00 0.00 94 1012.1
20260905084602 60 0 0.0 2.0 0.00 0.00 0.00 94 1012.0
20260905083054 60 0 0.0 3.0 0.00 0.00 0.00 94 1012.1
20260905081553 60 309 1.0 3.0 0.00 0.00 0.00 93 1012.1
20260905080100 60 0 0.0 7.0 0.00 0.00 0.00 93 1012.2
20260905074550 60 0 1.0 4.0 0.00 0.00 0.00 93 1012.3
20260905073054 61 341 1.0 2.0 0.00 0.00 0.00 93 1012.3
20260905071553 61 291 0.0 2.0 0.00 0.00 0.00 92 1012.5
20260905070055 61 0 0.0 3.0 0.00 0.00 0.00 93 1012.4
20260905064550 61 325 1.0 6.0 0.00 0.01 0.00 92 1012.7
20260905063058 61 346 0.0 5.0 0.00 0.01 0.00 92 1012.6
20260905061553 61 309 0.0 3.0 0.00 0.01 0.00 92 1012.9
20260905054558 60 325 1.0 2.0 0.00 0.01 0.00 91 1013.0
20260905053054 61 325 0.0 2.0 0.00 0.01 0.00 89 1013.3
20260905051553 61 334 0.0 2.0 0.00 0.01 0.00 88 1013.3
20260905044604 62 93 0.0 2.0 0.00 0.14 0.00 85 1013.2
20260905043055 62 291 0.0 3.0 0.00 0.14 0.00 85 1013.5
20260905041553 62 319 0.0 3.0 0.00 0.14 0.00 85 1013.5
20260905040103 63 325 0.0 2.0 0.00 0.14 0.00 84 1013.5
20260905034600 63 22 0.0 2.0 0.00 0.37 0.14 84 1013.5
20260905033054 63 34 0.0 2.0 0.00 0.37 0.14 82 1013.5
20260905031554 63 9 0.0 2.0 0.00 0.37 0.14 82 1013.5
20260905030104 64 309 0.0 2.0 0.00 0.37 0.14 81 1013.2
20260905024601 64 0 0.0 2.0 0.00 0.37 0.14 81 1013.4
20260905023052 65 325 0.0 2.0 0.00 0.37 0.14 82 1013.2
20260905021552 65 0 0.0 2.0 0.00 0.37 0.14 79 1013.4
20260905020058 65 9 0.0 3.0 0.00 0.37 0.14 80 1013.4
20260905014558 65 22 0.0 3.0 0.00 0.37 0.14 81 1013.7
20260905013059 65 9 0.0 2.0 0.00 0.37 0.14 82 1013.8
20260905011551 66 16 0.0 2.0 0.00 0.37 0.14 83 1013.8
20260905010058 66 0 0.0 2.0 0.00 0.37 0.14 82 1013.5
20260905004619 66 26 0.0 2.0 0.00 0.37 0.14 83 1013.6
20260905003055 67 0 0.0 2.0 0.00 0.37 0.14 82 1013.5
20260905001546 67 0 0.0 2.0 0.00 0.37 0.14 81 1013.3
20260905000054 67 51 1.0 3.0 0.00 0.37 0.14 80 1013.2
20260904234553 67 319 0.0 4.0 0.00 0.37 0.14 81 1013.1
20260904233100 67 26 0.0 4.0 0.00 0.37 0.14 81 1013.0
20260904231559 68 9 0.0 3.0 0.00 0.37 0.14 81 1013.2
20260904230122 68 309 0.0 2.0 0.00 0.37 0.14 80 1013.1
20260904224552 69 0 0.0 2.0 0.00 0.37 0.14 79 1013.0
20260904223051 69 265 0.0 2.0 0.00 0.37 0.14 79 1013.0
20260904221548 70 0 0.0 3.0 0.00 0.37 0.14 77 1012.9
20260904220058 70 338 1.0 6.0 0.00 0.37 0.14 75 1012.7
20260904214550 71 22 1.0 7.0 0.00 0.37 0.14 74 1012.8
20260904213051 70 325 1.0 3.0 0.00 0.37 0.14 76 1012.7
20260904211557 71 9 0.0 4.0 0.00 0.37 0.14 73 1012.9
20260904210051 72 19 1.0 9.0 0.00 0.37 0.14 69 1012.9
20260904204552 72 38 1.0 5.0 0.00 0.37 0.14 71 1013.1
20260904203056 72 31 1.0 5.0 0.00 0.37 0.14 72 1013.1
20260904201553 72 153 1.0 7.0 0.00 0.37 0.14 70 1013.3
20260904200051 72 137 1.0 3.0 0.00 0.37 0.14 73 1013.5
20260904194607 72 0 1.0 3.0 0.00 0.37 0.14 73 1013.5
20260904193053 72 32 1.0 4.0 0.00 0.37 0.14 71 1013.7
20260904191551 72 119 1.0 5.0 0.00 0.37 0.14 72 1013.8